JAL32 RJFF-RJTT

Flight info

Callsign JAL32
Flight time N/A
Altitude 41000
Route IPRIR Y231 OMKAT Y235 FLUTE Y23 ARTIC Y71 XAC
Aircraft A359/H-SDE2E3GHIJ3J4J5LM1ORWXY/LB1D1

Departure

Time 2026-05-08 07:50
Airport Fukuoka Airport (RJFF)

Arrival

Time N/A
Airport Tokyo Haneda International Airport (RJTT)
Time Latitude Longitude Altitude Speed Heading
2026-05-08 07:34 33.59788 130.44689 31 ft 0 kts 60°
2026-05-08 07:37 33.59787 130.44688 31 ft 1 kts 60°
2026-05-08 07:37 33.59775 130.44663 29 ft 4 kts 60°
2026-05-08 07:38 33.59764 130.44640 30 ft 4 kts 66°
2026-05-08 07:38 33.59760 130.44611 32 ft 4 kts 111°
2026-05-08 07:38 33.59775 130.44587 30 ft 4 kts 145°
2026-05-08 07:38 33.59790 130.44575 31 ft 0 kts 150°
2026-05-08 07:41 33.59789 130.44576 30 ft 2 kts 150°
2026-05-08 07:41 33.59749 130.44604 32 ft 12 kts 148°
2026-05-08 07:42 33.59658 130.44669 31 ft 17 kts 149°
2026-05-08 07:42 33.59544 130.44748 32 ft 20 kts 150°
2026-05-08 07:42 33.59412 130.44839 30 ft 23 kts 153°
2026-05-08 07:42 33.59262 130.44879 32 ft 23 kts 171°
2026-05-08 07:43 33.59107 130.44946 31 ft 25 kts 155°
2026-05-08 07:43 33.59046 130.44981 33 ft 7 kts 155°
2026-05-08 07:43 33.59044 130.44982 33 ft 0 kts 155°
2026-05-08 07:44 33.59017 130.44999 34 ft 7 kts 150°
2026-05-08 07:44 33.58970 130.45032 36 ft 9 kts 150°
2026-05-08 07:44 33.58915 130.45073 37 ft 11 kts 147°
2026-05-08 07:44 33.58842 130.45126 38 ft 14 kts 149°
2026-05-08 07:45 33.58756 130.45187 41 ft 15 kts 149°
2026-05-08 07:45 33.58657 130.45253 42 ft 18 kts 151°
2026-05-08 07:45 33.58537 130.45336 41 ft 21 kts 150°
2026-05-08 07:45 33.58401 130.45429 41 ft 25 kts 150°
2026-05-08 07:46 33.58244 130.45538 38 ft 28 kts 150°
2026-05-08 07:46 33.58073 130.45655 44 ft 29 kts 150°
2026-05-08 07:46 33.57895 130.45775 46 ft 30 kts 151°
2026-05-08 07:46 33.57720 130.45892 47 ft 24 kts 153°
2026-05-08 07:47 33.57654 130.45887 49 ft 6 kts 209°
2026-05-08 07:47 33.57640 130.45875 46 ft 7 kts 216°
2026-05-08 07:47 33.57636 130.45872 47 ft 0 kts 216°
2026-05-08 07:49 33.57620 130.45850 50 ft 10 kts 231°
2026-05-08 07:49 33.57612 130.45734 46 ft 17 kts 317°
2026-05-08 07:49 33.57721 130.45660 45 ft 19 kts 330°
2026-05-08 07:49 33.58031 130.45440 46 ft 97 kts 329°
2026-05-08 07:50 33.58898 130.44841 168 ft 180 kts 326°
2026-05-08 07:50 33.60066 130.44053 1143 ft 203 kts 327°
2026-05-08 07:50 33.61392 130.43149 1898 ft 233 kts 327°
2026-05-08 07:50 33.62799 130.42186 2849 ft 236 kts 329°
2026-05-08 07:51 33.64285 130.41303 3946 ft 237 kts 341°
2026-05-08 07:51 33.65925 130.41329 4953 ft 245 kts 15°
2026-05-08 07:51 33.67292 130.42564 5899 ft 261 kts 48°
2026-05-08 07:51 33.68232 130.44486 6764 ft 274 kts 57°
2026-05-08 07:52 33.68877 130.46705 7595 ft 293 kts 75°
2026-05-08 07:52 33.68757 130.49207 8449 ft 311 kts 105°
2026-05-08 07:52 33.67670 130.51473 9350 ft 319 kts 130°
2026-05-08 07:52 33.66151 130.53469 10206 ft 327 kts 140°
2026-05-08 07:53 33.64380 130.55309 10681 ft 350 kts 141°
2026-05-08 07:53 33.62879 130.57743 11038 ft 378 kts 115°
2026-05-08 07:53 33.62159 130.60819 11664 ft 390 kts 98°
2026-05-08 07:53 33.61725 130.64036 12387 ft 401 kts 97°
2026-05-08 07:54 33.61306 130.67372 13188 ft 409 kts 97°
2026-05-08 07:54 33.60872 130.70784 13946 ft 417 kts 98°
2026-05-08 07:54 33.60426 130.74247 14665 ft 423 kts 98°
2026-05-08 07:54 33.59970 130.77759 15415 ft 429 kts 98°
2026-05-08 07:55 33.59506 130.81309 16219 ft 434 kts 98°
2026-05-08 07:55 33.59034 130.84914 16883 ft 442 kts 99°
2026-05-08 07:55 33.58553 130.88573 17583 ft 448 kts 99°
2026-05-08 07:55 33.58065 130.92280 18352 ft 452 kts 99°
2026-05-08 07:56 33.57569 130.96032 18998 ft 458 kts 100°
2026-05-08 07:56 33.57074 130.99777 19515 ft 466 kts 101°
2026-05-08 07:56 33.56559 131.03646 20120 ft 472 kts 101°
2026-05-08 07:56 33.56039 131.07554 20741 ft 478 kts 101°
2026-05-08 07:57 33.55508 131.11523 21241 ft 487 kts 101°
2026-05-08 07:57 33.54970 131.15557 21815 ft 493 kts 102°
2026-05-08 07:57 33.54422 131.19635 22410 ft 499 kts 102°
2026-05-08 07:57 33.53866 131.23764 22986 ft 505 kts 103°
2026-05-08 07:58 33.53301 131.27950 23583 ft 511 kts 103°
2026-05-08 07:58 33.52737 131.32118 24074 ft 516 kts 103°
2026-05-08 07:58 33.52165 131.36345 24645 ft 518 kts 104°
2026-05-08 07:58 33.51584 131.40629 25348 ft 518 kts 104°
2026-05-08 07:59 33.51003 131.44904 25924 ft 522 kts 104°
2026-05-08 07:59 33.50415 131.49209 26471 ft 526 kts 104°
2026-05-08 07:59 33.49822 131.53528 27025 ft 529 kts 105°
2026-05-08 07:59 33.49220 131.57906 27565 ft 532 kts 105°
2026-05-08 08:00 33.48620 131.62271 28233 ft 532 kts 105°
2026-05-08 08:00 33.48021 131.66606 28768 ft 536 kts 105°
2026-05-08 08:00 33.47467 131.71054 29229 ft 544 kts 101°
2026-05-08 08:00 33.47454 131.75626 29711 ft 555 kts 87°
2026-05-08 08:01 33.47912 131.80236 30131 ft 562 kts 84°
2026-05-08 08:01 33.48548 131.84885 30447 ft 568 kts 82°
2026-05-08 08:01 33.49264 131.89545 30910 ft 571 kts 81°
2026-05-08 08:01 33.50004 131.94233 31376 ft 573 kts 81°
2026-05-08 08:02 33.50735 131.98943 31791 ft 576 kts 81°
2026-05-08 08:02 33.51448 132.03668 32235 ft 577 kts 81°
2026-05-08 08:02 33.52143 132.08410 32643 ft 580 kts 82°
2026-05-08 08:02 33.52819 132.13118 33039 ft 582 kts 82°
2026-05-08 08:03 33.53500 132.17918 33317 ft 587 kts 82°
2026-05-08 08:03 33.54180 132.22744 33664 ft 588 kts 82°
2026-05-08 08:03 33.54862 132.27587 34022 ft 590 kts 82°
2026-05-08 08:03 33.55849 132.32372 34343 ft 591 kts 72°
2026-05-08 08:04 33.57122 132.37058 34776 ft 590 kts 71°
2026-05-08 08:04 33.58458 132.41702 35147 ft 589 kts 70°
2026-05-08 08:04 33.59826 132.46314 35702 ft 585 kts 69°
2026-05-08 08:04 33.61193 132.50845 35975 ft 587 kts 69°
2026-05-08 08:05 33.62591 132.55462 36313 ft 587 kts 69°
2026-05-08 08:05 33.63967 132.60060 36781 ft 585 kts 69°
2026-05-08 08:05 33.65332 132.64659 37141 ft 583 kts 70°
2026-05-08 08:05 33.66684 132.69238 37566 ft 582 kts 70°
2026-05-08 08:06 33.68031 132.73818 37919 ft 583 kts 69°
2026-05-08 08:06 33.69379 132.78415 38178 ft 584 kts 70°
2026-05-08 08:06 33.70725 132.83010 38525 ft 583 kts 69°
2026-05-08 08:06 33.72051 132.87542 38820 ft 582 kts 69°
2026-05-08 08:07 33.73393 132.92131 39072 ft 582 kts 69°
2026-05-08 08:07 33.74734 132.96719 39324 ft 582 kts 69°
2026-05-08 08:07 33.76072 133.01311 39567 ft 583 kts 70°
2026-05-08 08:07 33.77411 133.05908 39728 ft 583 kts 70°
2026-05-08 08:08 33.78746 133.10499 40023 ft 582 kts 70°
2026-05-08 08:08 33.80081 133.15089 40262 ft 582 kts 70°
2026-05-08 08:08 33.81419 133.19698 40536 ft 582 kts 70°
2026-05-08 08:08 33.82744 133.24295 40721 ft 585 kts 70°
2026-05-08 08:09 33.84079 133.28932 40857 ft 587 kts 70°
2026-05-08 08:09 33.86728 133.38125 40898 ft 584 kts 70°
2026-05-08 08:10 33.89388 133.47346 40900 ft 583 kts 69°
2026-05-08 08:10 33.92037 133.56589 40910 ft 583 kts 70°
2026-05-08 08:11 33.94653 133.65775 40902 ft 585 kts 70°
2026-05-08 08:11 33.97298 133.75064 40891 ft 587 kts 70°
2026-05-08 08:12 33.99944 133.84360 40858 ft 586 kts 70°
2026-05-08 08:12 34.02571 133.93646 40877 ft 585 kts 70°
2026-05-08 08:13 34.04676 134.03121 40822 ft 586 kts 77°
2026-05-08 08:13 34.06454 134.12630 40884 ft 585 kts 78°
2026-05-08 08:14 34.08184 134.22208 40871 ft 584 kts 78°
2026-05-08 08:14 34.09911 134.31765 40851 ft 584 kts 78°
2026-05-08 08:15 34.11645 134.41313 40841 ft 585 kts 78°
2026-05-08 08:15 34.13367 134.50860 40825 ft 586 kts 78°
2026-05-08 08:16 34.15093 134.60467 40827 ft 585 kts 78°
2026-05-08 08:16 34.16810 134.70068 40833 ft 585 kts 79°
2026-05-08 08:17 34.18521 134.79677 40836 ft 586 kts 79°
2026-05-08 08:17 34.20214 134.89234 40848 ft 586 kts 79°
2026-05-08 08:18 34.21914 134.98873 40854 ft 586 kts 79°
2026-05-08 08:18 34.23570 135.08514 40842 ft 586 kts 79°
2026-05-08 08:19 34.25194 135.18173 40813 ft 586 kts 79°
2026-05-08 08:19 34.26811 135.27824 40836 ft 585 kts 79°
2026-05-08 08:20 34.28408 135.37370 40841 ft 585 kts 79°
2026-05-08 08:20 34.30020 135.47035 40843 ft 585 kts 79°
2026-05-08 08:21 34.31618 135.56668 40843 ft 584 kts 80°
2026-05-08 08:21 34.33209 135.66308 40848 ft 583 kts 80°
2026-05-08 08:22 34.34791 135.75951 40847 ft 591 kts 80°
2026-05-08 08:22 34.36380 135.85683 40828 ft 595 kts 80°
2026-05-08 08:23 34.37979 135.95521 40840 ft 595 kts 80°
2026-05-08 08:23 34.39567 136.05337 40835 ft 594 kts 81°
2026-05-08 08:24 34.41138 136.15091 40833 ft 594 kts 81°
2026-05-08 08:24 34.42711 136.24931 40813 ft 596 kts 81°
2026-05-08 08:25 34.44275 136.34796 40805 ft 597 kts 81°
2026-05-08 08:25 34.45837 136.44690 40806 ft 599 kts 81°
2026-05-08 08:26 34.47386 136.54541 40800 ft 599 kts 81°
2026-05-08 08:26 34.48931 136.64423 40797 ft 599 kts 81°
2026-05-08 08:27 34.50460 136.74254 40798 ft 599 kts 81°
2026-05-08 08:27 34.51994 136.84176 40792 ft 599 kts 81°
2026-05-08 08:28 34.53485 136.94035 40787 ft 597 kts 84°
2026-05-08 08:28 34.53947 137.04028 40791 ft 593 kts 92°
2026-05-08 08:29 34.54059 137.13984 40789 ft 593 kts 93°
2026-05-08 08:29 34.54097 137.23985 40795 ft 593 kts 94°
2026-05-08 08:30 34.54138 137.33988 40795 ft 593 kts 94°
2026-05-08 08:30 34.54211 137.48922 40791 ft 592 kts 94°
2026-05-08 08:31 34.54255 137.58901 40786 ft 591 kts 94°
2026-05-08 08:31 34.54293 137.68858 40785 ft 590 kts 94°
2026-05-08 08:32 34.54315 137.78806 40785 ft 590 kts 94°
2026-05-08 08:32 34.54328 137.88652 40784 ft 589 kts 94°
2026-05-08 08:33 34.54336 137.98576 40738 ft 589 kts 94°
2026-05-08 08:33 34.54336 138.08498 40771 ft 588 kts 94°
2026-05-08 08:34 34.54314 138.18417 40767 ft 588 kts 94°
2026-05-08 08:34 34.54280 138.28268 40772 ft 588 kts 94°
2026-05-08 08:35 34.54895 138.38173 40761 ft 592 kts 78°
2026-05-08 08:35 34.56137 138.42900 40241 ft 582 kts 67°
2026-05-08 08:35 34.57748 138.47383 39117 ft 580 kts 65°
2026-05-08 08:36 34.59518 138.51802 37553 ft 586 kts 63°
2026-05-08 08:36 34.61388 138.56221 36020 ft 589 kts 62°
2026-05-08 08:36 34.63283 138.60627 34637 ft 589 kts 62°
2026-05-08 08:36 34.65144 138.64979 33160 ft 588 kts 63°
2026-05-08 08:37 34.67008 138.69398 31807 ft 584 kts 63°
2026-05-08 08:37 34.68818 138.73744 30887 ft 570 kts 63°
2026-05-08 08:37 34.70380 138.78109 29965 ft 559 kts 73°
2026-05-08 08:37 34.71256 138.82684 29265 ft 556 kts 86°
2026-05-08 08:38 34.71523 138.87342 28592 ft 549 kts 92°
2026-05-08 08:38 34.71608 138.91958 27989 ft 542 kts 94°
2026-05-08 08:38 34.71608 138.96518 27359 ft 537 kts 95°
2026-05-08 08:38 34.71569 139.01033 26716 ft 533 kts 95°
2026-05-08 08:39 34.71516 139.05466 26119 ft 529 kts 95°
2026-05-08 08:39 34.71470 139.09915 25503 ft 526 kts 95°
2026-05-08 08:39 34.71432 139.14343 24873 ft 522 kts 95°
2026-05-08 08:39 34.71398 139.18746 24248 ft 519 kts 95°
2026-05-08 08:40 34.71366 139.23114 23629 ft 516 kts 95°
2026-05-08 08:40 34.71335 139.27470 22952 ft 514 kts 95°
2026-05-08 08:40 34.71305 139.31790 22295 ft 508 kts 95°
2026-05-08 08:40 34.71273 139.36057 21649 ft 502 kts 95°
2026-05-08 08:41 34.71432 139.40224 21084 ft 501 kts 84°
2026-05-08 08:41 34.72391 139.44279 20443 ft 500 kts 67°
2026-05-08 08:41 34.74016 139.47996 19822 ft 496 kts 59°
2026-05-08 08:41 34.75756 139.51602 19184 ft 492 kts 59°
2026-05-08 08:42 34.77461 139.55180 18548 ft 488 kts 60°
2026-05-08 08:42 34.79136 139.58757 17925 ft 484 kts 61°
2026-05-08 08:42 34.80757 139.62262 17755 ft 467 kts 61°
2026-05-08 08:42 34.82313 139.65648 17634 ft 449 kts 61°
2026-05-08 08:43 34.84054 139.68711 17469 ft 433 kts 45°
2026-05-08 08:43 34.86382 139.70866 17299 ft 411 kts 21°
2026-05-08 08:43 34.88951 139.72013 17121 ft 391 kts
2026-05-08 08:43 34.91527 139.72910 16913 ft 379 kts
2026-05-08 08:44 34.94019 139.73813 16744 ft 368 kts
2026-05-08 08:44 34.96434 139.74713 16547 ft 358 kts 10°
2026-05-08 08:44 34.98734 139.75886 16153 ft 365 kts 28°
2026-05-08 08:44 35.00680 139.77875 15818 ft 365 kts 41°
2026-05-08 08:45 35.02477 139.80036 15450 ft 362 kts 43°
2026-05-08 08:45 35.04255 139.82194 15104 ft 359 kts 42°
2026-05-08 08:45 35.06008 139.84308 14767 ft 356 kts 42°
2026-05-08 08:45 35.07760 139.86414 14449 ft 353 kts 42°
2026-05-08 08:46 35.09505 139.88508 14117 ft 350 kts 42°
2026-05-08 08:46 35.11328 139.90324 13817 ft 341 kts 27°
2026-05-08 08:46 35.13362 139.91748 13529 ft 334 kts 22°
2026-05-08 08:46 35.15400 139.93086 13206 ft 330 kts 22°
2026-05-08 08:47 35.17402 139.94400 12926 ft 325 kts 22°
2026-05-08 08:47 35.19380 139.95702 12650 ft 321 kts 21°
2026-05-08 08:47 35.21337 139.96994 12382 ft 318 kts 22°
2026-05-08 08:47 35.23280 139.98282 12130 ft 318 kts 22°
2026-05-08 08:48 35.25212 139.99561 11876 ft 323 kts 22°
2026-05-08 08:48 35.27188 140.00875 11648 ft 321 kts 22°
2026-05-08 08:48 35.29116 140.02164 11496 ft 312 kts 22°
2026-05-08 08:48 35.31001 140.03424 11307 ft 306 kts 22°
2026-05-08 08:49 35.32841 140.04654 11067 ft 302 kts 22°
2026-05-08 08:49 35.34680 140.05879 10800 ft 300 kts 22°
2026-05-08 08:49 35.36509 140.07097 10522 ft 299 kts 22°
2026-05-08 08:49 35.38326 140.08308 10259 ft 297 kts 22°
2026-05-08 08:50 35.40118 140.09506 10001 ft 296 kts 22°
2026-05-08 08:50 35.41925 140.10722 9953 ft 300 kts 22°
2026-05-08 08:50 35.43773 140.11950 9913 ft 304 kts 22°
2026-05-08 08:50 35.45632 140.13189 9862 ft 304 kts 22°
2026-05-08 08:51 35.47489 140.14431 9799 ft 304 kts 22°
2026-05-08 08:51 35.49347 140.15674 9749 ft 304 kts 22°
2026-05-08 08:51 35.51202 140.16916 9699 ft 304 kts 22°
2026-05-08 08:51 35.53053 140.18157 9656 ft 303 kts 22°
2026-05-08 08:52 35.54903 140.19398 9594 ft 303 kts 22°
2026-05-08 08:52 35.56725 140.20622 9540 ft 301 kts 22°
2026-05-08 08:52 35.58564 140.21856 9477 ft 301 kts 22°
2026-05-08 08:52 35.60467 140.22811 9424 ft 290 kts
2026-05-08 08:53 35.62417 140.22831 9393 ft 276 kts 345°
2026-05-08 08:53 35.64311 140.22530 9348 ft 275 kts 343°
2026-05-08 08:53 35.66213 140.22196 9312 ft 276 kts 344°
2026-05-08 08:53 35.68115 140.21870 9252 ft 276 kts 345°
2026-05-08 08:54 35.69997 140.21557 9217 ft 276 kts 345°
2026-05-08 08:54 35.71905 140.21245 9161 ft 277 kts 345°
2026-05-08 08:54 35.73808 140.20937 9109 ft 272 kts 345°
2026-05-08 08:54 35.75640 140.20648 9063 ft 258 kts 345°
2026-05-08 08:55 35.77433 140.20358 9006 ft 258 kts 344°
2026-05-08 08:55 35.79191 140.20076 8901 ft 252 kts 345°
2026-05-08 08:55 35.80934 140.19798 8902 ft 253 kts 344°
2026-05-08 08:55 35.82675 140.19511 8903 ft 252 kts 344°
2026-05-08 08:56 35.84414 140.19221 8896 ft 251 kts 343°
2026-05-08 08:56 35.86129 140.18936 8900 ft 253 kts 343°
2026-05-08 08:56 35.87871 140.18653 8895 ft 253 kts 343°
2026-05-08 08:56 35.89619 140.18371 8895 ft 253 kts 343°
2026-05-08 08:57 35.91381 140.18174 8893 ft 256 kts 349°
2026-05-08 08:57 35.93169 140.18109 8893 ft 257 kts 350°
2026-05-08 08:57 35.94948 140.17837 8894 ft 266 kts 335°
2026-05-08 08:57 35.96554 140.16765 8875 ft 271 kts 309°
2026-05-08 08:58 35.97503 140.14847 8833 ft 258 kts 279°
2026-05-08 08:58 35.97563 140.12731 8698 ft 249 kts 262°
2026-05-08 08:58 35.97366 140.10567 8480 ft 252 kts 261°
2026-05-08 08:58 35.97171 140.08449 8221 ft 252 kts 262°
2026-05-08 08:59 35.96986 140.06299 7946 ft 253 kts 262°
2026-05-08 08:59 35.96806 140.04129 7672 ft 255 kts 262°
2026-05-08 08:59 35.96627 140.01931 7385 ft 259 kts 262°
2026-05-08 08:59 35.96449 139.99718 7099 ft 260 kts 263°
2026-05-08 09:00 35.96273 139.97507 6816 ft 260 kts 262°
2026-05-08 09:00 35.96095 139.95278 6532 ft 261 kts 263°
2026-05-08 09:00 35.95917 139.93046 6240 ft 261 kts 263°
2026-05-08 09:00 35.95579 139.90847 5958 ft 261 kts 250°
2026-05-08 09:01 35.94871 139.88817 5939 ft 262 kts 244°
2026-05-08 09:01 35.94073 139.86794 5942 ft 262 kts 244°
2026-05-08 09:01 35.93273 139.84781 5922 ft 262 kts 244°
2026-05-08 09:01 35.92474 139.82766 5728 ft 261 kts 244°
2026-05-08 09:02 35.91679 139.80761 5505 ft 259 kts 244°
2026-05-08 09:02 35.90890 139.78765 5298 ft 259 kts 244°
2026-05-08 09:02 35.90098 139.76763 5094 ft 257 kts 244°
2026-05-08 09:02 35.89589 139.75476 5034 ft 250 kts 244°
2026-05-08 09:03 35.88826 139.73562 5013 ft 248 kts 245°
2026-05-08 09:03 35.87807 139.70982 5007 ft 256 kts 244°
2026-05-08 09:03 35.87013 139.69021 4990 ft 256 kts 242°
2026-05-08 09:03 35.85896 139.67306 4983 ft 260 kts 221°
2026-05-08 09:04 35.84384 139.66071 4994 ft 261 kts 213°
2026-05-08 09:04 35.82828 139.64993 4920 ft 250 kts 212°
2026-05-08 09:04 35.81343 139.63982 4808 ft 237 kts 211°
2026-05-08 09:04 35.80364 139.63442 4747 ft 231 kts 201°
2026-05-08 09:05 35.78796 139.63185 4647 ft 223 kts 187°
2026-05-08 09:05 35.77285 139.63190 4586 ft 211 kts 186°
2026-05-08 09:05 35.75426 139.63398 4538 ft 198 kts 173°
2026-05-08 09:05 35.74140 139.64022 4522 ft 200 kts 160°
2026-05-08 09:06 35.72922 139.64845 4476 ft 200 kts 158°
2026-05-08 09:06 35.71715 139.65699 4232 ft 200 kts 158°
2026-05-08 09:06 35.70504 139.66561 3906 ft 202 kts 158°
2026-05-08 09:06 35.69705 139.67138 3771 ft 198 kts 157°
2026-05-08 09:07 35.68568 139.67948 3662 ft 186 kts 159°
2026-05-08 09:07 35.67469 139.68725 3472 ft 179 kts 159°
2026-05-08 09:07 35.66415 139.69480 3174 ft 173 kts 159°
2026-05-08 09:07 35.65385 139.70214 2845 ft 169 kts 158°
2026-05-08 09:08 35.64379 139.70929 2469 ft 167 kts 159°
2026-05-08 09:08 35.63575 139.71503 2223 ft 163 kts 160°
2026-05-08 09:08 35.62778 139.72070 2048 ft 158 kts 161°
2026-05-08 09:08 35.61848 139.72733 2001 ft 153 kts 161°
2026-05-08 09:09 35.60920 139.73391 2005 ft 155 kts 160°
2026-05-08 09:09 35.59998 139.74048 1948 ft 157 kts 159°
2026-05-08 09:09 35.59070 139.74732 1700 ft 153 kts 157°
2026-05-08 09:09 35.58126 139.75497 1718 ft 172 kts 158°
2026-05-08 09:10 35.57032 139.76144 1891 ft 178 kts 164°
2026-05-08 09:10 35.55959 139.76946 1969 ft 181 kts 158°